RH
31 32 33 27 25 21 19 20 20 16 14 16 17 15 12 11 12 12 15 18 22 29 36 43 48 54 65 76 80 83 88 97 98 97 97 97 100 99 99 100 100 100 97 98
27 32 24 21 21 23 23 24 23 18 15 17 19 18 15 13 12 13 14 17 23 32 33 38 43 48 52 55 57 60 68 75 78 87 92 98 98 98 94 93 95 98 100 100
28 25 22 22 23 24 25 26 25 23 18 20 22 23 20 16 15 14 16 16 25 30 32 37 40 42 45 49 47 47 49 57 79 79 86 82 77 72 71 81 83 84 86 88
25 20 21 25 26 24 29 21 22 24 26 29 19 28 19 19 19 20 20 23 28 30 32 33 36 38 42 44 48 43 40 39 28 38 66 79 69 64 62 69 77 96 99 97
26 22 24 27 24 23 27 21 24 26 29 29 26 29 23 18 22 26 25 29 31 34 33 33 33 33 37 44 44 39 39 40 27 12 10 17 52 52 53 59 60 35 82 96
21 18 20 23 21 22 22 27 28 28 32 43 33 32 27 20 16 25 27 30 35 33 33 33 30 27 29 35 35 24 31 36 42 30 37 40 47 56 56 57 64 70 88 98
29 24 21 25 25 23 27 34 47 50 45 44 25 27 26 18 17 20 29 33 36 35 34 25 24 24 26 29 33 32 30 29 31 38 41 42 37 26 37 54 53 58 69 84
40 42 28 28 28 31 33 36 45 63 48 36 22 28 20 22 17 22 30 35 37 34 29 25 25 26 25 27 28 32 31 31 35 38 42 48 51 51 54 56 62 70 69 74
33 34 22 24 28 29 35 43 36 46 51 66 41 25 33 27 24 27 32 38 37 29 27 25 25 26 26 26 27 33 37 36 37 41 48 53 53 54 56 63 74 79 80 82
32 44 24 23 25 28 31 27 50 78 77 69 41 35 31 35 30 31 34 39 32 26 26 24 24 26 27 27 28 34 38 37 37 41 46 51 59 58 60 62 72 72 87 72
31 50 48 34 41 37 38 52 47 56 54 64 53 35 29 30 30 34 34 35 27 26 24 24 26 28 28 30 30 33 37 39 42 46 50 55 64 73 74 80 85 91 97 50
38 58 57 53 32 31 32 51 52 86 94 59 60 53 27 29 29 30 30 27 24 24 25 26 29 30 30 29 32 33 38 42 44 49 53 61 68 77 84 89 90 96 98 75
53 74 99 49 42 30 35 39 48 52 55 65 79 62 30 28 30 30 28 24 24 26 25 27 29 33 31 32 35 37 39 44 49 54 59 67 73 81 89 92 99 82 70 66
57 62 63 56 44 36 42 34 34 58 93 67 57 47 40 34 33 31 28 27 26 26 26 26 27 31 34 37 40 42 44 49 55 62 65 70 78 86 91 88 74 78 72 74
56 68 65 51 39 49 35 37 34 37 45 71 50 40 35 34 34 29 29 28 26 25 24 25 26 33 36 38 41 44 46 55 63 70 74 77 88 80 77 84 82 79 78 81
45 62 54 66 47 45 44 34 31 31 29 30 39 41 24 24 29 29 28 26 23 24 26 28 32 32 34 38 42 45 55 62 76 80 87 98 79 77 88 84 81 86 90 88
72 77 94 89 55 62 85 52 38 37 30 30 39 30 24 28 29 29 28 24 25 27 28 33 32 34 38 41 44 47 53 63 87 97 83 85 96 94 89 84 90 92 89 84
74 86 95 99 95 95 43 28 33 34 31 28 27 26 24 24 27 27 25 25 29 28 32 33 32 34 35 38 44 53 57 81 98 92 100 96 94 98 90 87 94 92 88 83
71 88 98 93 84 43 36 29 34 40 42 29 28 26 23 24 24 25 26 26 28 30 32 31 30 33 35 37 46 50 68 89 94 99 98 97 100 99 97 96 90 89 86 88
93 76 83 95 93 75 37 26 24 26 46 27 27 28 27 26 38 30 28 26 26 28 29 28 29 31 34 36 48 52 55 80 99 95 100 100 99 100 100 100 94 87 91 100
99 100 94 86 81 55 25 22 24 52 40 24 26 28 28 33 29 27 28 32 33 30 29 30 31 32 31 35 50 52 61 76 99 91 98 99 99 100 100 100 95 93 100 100
76 88 87 93 90 76 22 23 33 32 30 25 24 26 24 24 31 38 37 34 30 30 29 30 30 29 31 40 54 54 58 76 80 86 100 99 99 99 100 100 99 100 99 98
68 51 61 64 61 39 24 24 32 28 26 24 25 31 30 33 33 33 33 33 32 31 30 32 31 32 34 38 50 60 64 84 71 57 90 99 100 99 98 100 100 99 98 98
50 43 58 58 46 33 28 30 30 30 32 29 29 27 30 30 31 31 29 28 28 24 25 30 32 35 36 39 42 51 72 92 72 62 85 100 99 100 98 100 100 100 100 100
50 50 64 58 55 42 47 38 33 30 31 31 31 29 27 27 28 27 26 26 26 26 28 32 36 37 40 42 45 50 66 88 99 82 83 98 100 100 99 99 99 100 100 100
54 60 67 68 38 34 38 37 36 37 35 28 26 30 32 32 29 29 32 32 33 33 37 40 42 44 47 50 55 60 67 84 100 99 82 86 98 100 99 93 96 100 100 100
Wind_Speed
29 19 21 29 26 23 20 14 14 10 15 7 12 16 16 16 21 19 11 15 13 10 8 8 9 9 10 10 9 7 3 6 9 12 13 13 16 16 19 23 25 24 24 27
17 25 27 25 23 22 23 20 18 16 16 11 14 19 20 18 19 18 21 20 16 13 12 11 11 11 12 12 12 11 9 7 2 5 6 4 5 7 10 12 17 21 27 31
27 18 26 24 24 22 22 22 18 18 11 12 14 21 24 22 30 24 15 15 19 18 13 12 13 13 12 12 12 11 10 10 9 8 2 2 3 5 7 8 10 13 15 18
28 23 18 26 26 20 22 21 18 17 16 17 18 18 18 6 12 12 17 17 19 19 15 13 12 11 11 10 10 9 9 8 8 8 4 0 4 6 6 7 8 10 16 18
31 25 29 24 24 23 21 14 17 17 17 18 22 15 15 19 15 14 15 21 21 18 17 14 12 11 9 7 6 6 6 6 6 7 6 4 5 7 9 12 16 18 20 20
28 23 23 23 20 21 13 14 10 12 13 19 20 20 21 20 18 23 21 24 24 21 17 14 11 9 6 4 3 3 4 4 6 8 8 9 10 11 13 14 16 16 16 17
24 27 18 7 22 21 19 13 10 10 14 18 17 18 19 16 6 23 22 26 23 20 17 14 11 8 5 1 1 3 5 6 8 10 12 12 13 15 16 15 16 17 17 18
26 24 31 17 21 19 22 19 13 13 14 17 18 15 12 9 4 24 28 26 23 19 16 13 10 7 3 1 3 6 8 11 10 10 11 12 14 14 15 15 16 17 17 17
20 33 25 34 22 23 22 23 20 20 14 9 10 6 6 8 12 19 25 27 23 18 16 13 9 5 2 3 5 7 8 9 10 11 13 14 14 16 17 18 18 17 17 16
25 14 22 23 28 28 30 14 18 3 9 15 13 22 15 20 21 21 22 26 24 19 15 12 9 5 4 5 6 7 9 10 11 13 13 15 17 19 19 18 19 20 19 21
26 10 8 13 21 22 17 16 11 9 12 9 13 14 9 20 20 22 21 26 22 18 15 11 8 5 5 6 7 7 8 10 12 14 14 16 18 19 18 17 17 17 21 27
19 4 12 21 17 23 25 21 22 6 5 13 12 12 3 16 19 21 24 23 19 16 12 10 7 6 6 7 8 9 11 13 15 17 16 17 18 18 17 15 16 18 18 22
11 6 5 12 7 12 13 23 25 18 12 18 8 2 3 10 17 24 25 20 16 15 12 8 6 6 7 8 10 12 14 15 16 18 18 19 18 18 16 17 22 22 20 20
21 7 12 12 11 14 24 21 23 22 11 16 23 15 9 13 17 19 22 18 16 14 10 7 6 6 7 9 12 14 16 16 17 19 19 20 17 17 25 26 23 19 19 20
17 15 21 23 21 10 12 23 25 29 28 19 17 23 15 18 18 23 24 20 16 14 10 7 5 4 6 9 11 14 16 17 17 19 19 16 21 24 21 18 17 17 18 17
13 8 10 13 16 16 13 22 23 28 28 29 23 24 15 15 24 23 24 16 16 12 8 5 4 5 6 8 11 14 15 16 17 16 15 19 21 16 14 14 15 15 15 14
11 8 6 8 16 5 12 26 27 22 24 22 23 21 18 9 16 21 19 17 13 11 9 8 6 5 5 7 11 15 15 15 15 15 18 16 12 11 12 13 11 10 8 9
12 9 4 2 9 8 12 2 23 28 25 23 24 20 12 9 20 17 15 14 14 11 10 9 7 6 6 8 10 13 12 13 14 16 13 11 12 12 11 10 8 7 7 7
12 9 5 6 12 10 11 6 10 19 22 24 21 18 10 7 8 12 15 12 12 11 9 8 7 7 8 9 10 12 14 12 16 13 13 13 11 10 10 8 6 7 6 5
7 9 8 6 7 11 5 12 12 9 15 15 19 17 18 20 9 10 21 14 11 10 9 9 8 8 9 10 10 13 13 13 12 14 9 9 10 9 12 10 9 6 6 5
7 5 13 9 8 8 6 12 15 10 2 7 15 19 20 12 11 10 15 13 10 9 10 11 12 13 14 12 9 14 12 12 12 13 14 13 15 15 12 12 11 8 7 6
13 12 8 7 9 15 20 15 11 8 12 12 12 13 15 14 10 8 8 9 10 11 12 14 16 17 14 13 10 14 13 11 14 16 17 14 14 14 14 14 12 10 8 8
10 9 9 11 5 2 28 7 10 13 16 14 17 14 14 11 10 10 10 11 11 12 13 13 14 15 14 14 13 15 15 11 15 16 15 15 14 12 15 16 13 11 11 10
8 10 6 9 7 13 19 18 16 16 15 15 14 12 9 9 10 11 13 15 15 15 14 15 14 16 17 16 17 16 15 13 15 15 12 12 13 14 16 16 13 13 13 13
7 15 13 7 12 12 16 20 20 16 15 13 9 7 8 9 11 12 13 14 14 15 15 15 16 18 18 18 17 17 16 15 12 15 13 13 14 16 15 14 14 15 14 12
11 16 12 6 21 9 24 22 20 18 13 10 9 9 9 9 10 11 13 13 14 14 14 15 17 18 18 17 16 16 15 17 15 18 15 15 16 17 17 16 16 16 13 13
Wind_Direction
206 204 212 223 223 242 263 277 278 196 240 236 256 263 250 225 215 221 216 213 204 175 147 120 102 95 97 94 100 114 167 237 258 246 240 240 240 245 246 240 241 249 248 251
196 221 221 229 238 234 247 252 247 257 261 240 261 260 259 247 246 234 218 203 193 180 164 138 121 107 97 95 91 90 88 79 88 247 283 256 260 289 280 274 265 261 257 256
217 217 226 227 228 231 230 240 234 248 242 214 250 263 260 253 239 238 233 204 182 188 173 155 136 121 109 99 92 88 83 73 73 90 151 322 352 338 332 313 308 283 266 260
234 229 228 219 229 220 232 227 238 249 252 251 246 267 264 115 187 201 204 194 184 178 175 162 143 128 118 106 99 87 76 67 65 94 78 56 309 309 308 301 289 275 271 273
233 222 235 225 219 214 234 255 238 231 255 267 251 256 249 254 192 193 185 184 177 178 177 167 154 143 131 109 90 78 58 38 16 7 352 341 306 297 296 289 291 278 266 270
240 216 234 216 217 221 208 240 238 240 250 252 248 253 253 249 239 183 180 184 177 174 172 166 160 155 143 110 92 37 26 2 338 334 331 323 312 305 298 293 289 286 281 271
221 234 206 284 219 211 201 221 229 237 226 249 244 238 239 238 241 170 170 176 175 174 174 175 172 171 168 146 23 0 329 326 326 322 319 312 305 298 295 295 292 290 287 287
216 221 222 188 217 200 208 213 227 247 248 263 237 235 234 48 109 145 164 171 173 177 182 183 181 181 188 279 314 320 325 326 317 312 306 303 300 296 288 286 281 278 278 277
218 231 208 215 201 223 202 218 237 262 259 280 257 222 116 148 157 151 163 167 175 183 187 189 192 190 213 269 298 302 308 300 295 292 292 290 291 290 287 284 283 283 283 284
234 272 216 215 215 210 233 206 209 207 225 237 235 237 251 176 172 168 165 174 181 186 189 193 200 207 242 268 287 286 288 292 296 301 300 297 295 294 289 282 280 280 282 284
221 244 211 169 199 202 197 213 205 220 232 243 263 253 353 174 176 176 171 179 181 191 196 200 206 223 250 268 282 284 292 293 299 307 304 294 291 287 287 276 275 276 276 279
204 156 196 191 214 219 209 196 194 196 191 235 257 263 1 152 172 177 172 175 186 193 198 210 215 228 257 279 291 302 307 313 312 307 300 293 291 283 277 275 273 273 279 285
156 202 149 184 225 222 233 209 201 218 247 233 218 158 167 160 170 177 170 176 184 194 203 210 223 253 281 293 304 311 310 303 302 301 296 292 286 277 275 268 262 270 285 290
161 190 219 187 178 187 210 219 218 199 227 235 239 248 184 187 179 175 173 183 192 197 214 231 246 263 294 314 308 303 299 299 298 297 293 287 279 259 251 259 274 279 282 288
170 211 220 246 266 181 230 213 226 229 228 220 240 242 205 195 191 185 183 191 199 211 217 226 243 278 295 292 299 298 293 294 296 294 290 282 255 266 267 270 270 274 283 288
203 203 227 246 240 251 244 247 226 228 237 244 240 246 267 205 190 188 193 189 210 220 223 218 215 242 271 289 297 303 297 299 302 301 288 261 274 272 265 265 273 282 291 286
163 164 153 233 230 235 273 238 237 232 232 231 240 242 244 177 190 191 186 208 215 220 210 205 218 238 286 302 303 304 303 302 298 294 288 285 273 260 261 270 277 277 274 281
171 163 159 143 124 209 246 207 221 228 230 231 241 242 249 248 189 195 198 211 208 210 203 211 227 246 274 300 310 323 313 296 293 301 285 276 266 256 254 267 263 265 258 266
179 162 153 176 211 282 240 202 189 204 229 234 236 231 188 158 155 182 213 211 208 203 207 227 239 257 281 297 319 325 320 300 296 302 274 263 244 240 265 249 245 262 256 256
182 205 193 173 208 223 268 163 192 208 245 224 225 216 206 175 194 229 202 183 196 208 222 235 248 266 279 290 311 323 323 303 279 299 275 263 265 271 256 234 232 231 237 231
164 182 198 186 218 255 129 139 149 165 155 139 193 214 208 210 185 128 145 174 209 231 248 252 258 269 276 282 295 312 316 314 283 279 274 276 269 275 243 242 243 243 240 239
164 172 190 191 209 235 152 161 180 118 130 134 149 152 166 176 157 161 188 220 243 254 259 264 268 273 281 283 290 296 310 318 318 285 276 271 268 262 240 243 244 255 255 244
186 201 173 197 201 122 157 169 138 141 134 137 136 141 152 166 187 204 232 246 252 260 266 269 273 274 276 279 276 285 301 302 312 298 272 265 256 251 237 237 241 250 248 248
180 166 193 144 175 162 158 152 155 153 147 141 144 151 165 194 213 231 243 249 252 257 261 264 267 271 275 277 280 282 283 288 301 301 270 257 245 226 230 236 241 249 249 244
167 164 171 175 169 158 175 177 169 160 152 154 161 186 210 218 227 240 249 254 258 262 262 261 264 266 270 274 278 281 279 277 278 281 268 254 239 231 225 230 243 248 251 252
171 179 182 189 167 157 176 174 176 168 175 188 198 202 209 221 239 246 253 257 260 262 263 264 265 266 269 272 274 275 272 265 263 262 266 249 243 230 228 230 236 241 246 246